When you browse on this site, cookies collect data to enhance your experience and personalize the content and advertising you see.
Visit our Privacy Policy to learn more. By continuing to use the site, you agree to this use of cookies and data.
  • In Romania
  • List of Countries
  • For 7 days
  • Water Temperature
  • Satellite Maps
  • Weather Map
  • Weather Widgets
  • user-avatar
    Login

    Hourly Weather Tihonovo

    Today, 21 March, Thursday

    Time Temperature Precipitation Wind Pressure Humidity
    00:00 -3°C° 0 mm 2 mps 754 mmHg 94%
    01:00 -4°C° 0 mm 2 mps 754 mmHg 94%
    02:00 -4°C° 0 mm 2 mps 754 mmHg 94%
    03:00 -4°C° 0 mm 2 mps 753 mmHg 94%
    04:00 -4°C° 0 mm 2 mps 753 mmHg 94%
    05:00 -4°C° 0 mm 2 mps 752 mmHg 93%
    06:00 -3°C° 0 mm 2 mps 752 mmHg 91%
    07:00 -2°C° 0 mm 2 mps 752 mmHg 89%
    08:00 -1°C° 0 mm 3 mps 752 mmHg 86%
    09:00 -1°C° 0 mm 2 mps 752 mmHg 86%
    10:00 +1°C° 0 mm 2 mps 752 mmHg 86%
    11:00 +2°C° 0 mm 2 mps 752 mmHg 86%
    12:00 +2°C° 0 mm 2 mps 752 mmHg 85%
    13:00 +2°C° 0 mm 2 mps 752 mmHg 85%
    14:00 +3°C° 0 mm 2 mps 752 mmHg 84%
    15:00 +2°C° 0.1 mm 2 mps 752 mmHg 86%
    16:00 +2°C° 0.1 mm 2 mps 752 mmHg 88%
    17:00 +2°C° 0.1 mm 2 mps 752 mmHg 90%
    18:00 +1°C° 0 mm 2 mps 752 mmHg 90%
    19:00 -1°C° 0 mm 2 mps 752 mmHg 91%
    20:00 -1°C° 0 mm 2 mps 752 mmHg 91%
    21:00 -2°C° 0 mm 2 mps 751 mmHg 92%
    22:00 -2°C° 0 mm 2 mps 751 mmHg 93%
    23:00 -3°C° 0 mm 2 mps 751 mmHg 94%

    Tomorrow, 22 March, Friday

    Time Temperature Precipitation Wind Pressure Humidity
    00:00 -2°C° 0 mm 2 mps 750 mmHg 93%
    01:00 -2°C° 0 mm 2 mps 750 mmHg 93%
    02:00 -2°C° 0 mm 2 mps 750 mmHg 92%
    03:00 -1°C° 0.1 mm 3 mps 748 mmHg 92%
    04:00 -1°C° 0.1 mm 3 mps 747 mmHg 92%
    05:00 -1°C° 0.1 mm 4 mps 746 mmHg 91%
    06:00 -1°C° 0.6 mm 4 mps 745 mmHg 91%
    07:00 -1°C° 0.6 mm 4 mps 744 mmHg 90%
    08:00 0°C° 0.6 mm 4 mps 743 mmHg 90%
    09:00 +1°C° 1.6 mm 3 mps 743 mmHg 91%
    10:00 +1°C° 1.6 mm 3 mps 743 mmHg 93%
    11:00 +1°C° 1.6 mm 3 mps 743 mmHg 95%
    12:00 -1°C° 0.8 mm 4 mps 743 mmHg 91%
    13:00 -2°C° 0.8 mm 6 mps 743 mmHg 88%
    14:00 -2°C° 0.8 mm 7 mps 744 mmHg 84%
    15:00 -3°C° 0.6 mm 7 mps 744 mmHg 84%
    16:00 -3°C° 0.6 mm 7 mps 745 mmHg 84%
    17:00 -3°C° 0.6 mm 6 mps 745 mmHg 84%
    18:00 -3°C° 0.3 mm 6 mps 746 mmHg 85%
    19:00 -3°C° 0.3 mm 6 mps 747 mmHg 86%
    20:00 -3°C° 0.3 mm 6 mps 747 mmHg 86%
    21:00 -3°C° 0.1 mm 6 mps 748 mmHg 87%
    22:00 -2°C° 0.1 mm 5 mps 749 mmHg 87%
    23:00 -2°C° 0.1 mm 5 mps 750 mmHg 88%

    Day after tomorrow, 23 March, Saturday

    Time Temperature Precipitation Wind Pressure Humidity
    00:00 -2°C° 0 mm 5 mps 751 mmHg 89%
    01:00 -2°C° 0 mm 4 mps 752 mmHg 90%
    02:00 -2°C° 0 mm 4 mps 752 mmHg 91%
    03:00 -2°C° 0 mm 4 mps 753 mmHg 92%
    04:00 -2°C° 0 mm 3 mps 754 mmHg 93%
    05:00 -2°C° 0 mm 3 mps 754 mmHg 94%
    06:00 -1°C° 0 mm 2 mps 755 mmHg 94%
    07:00 -1°C° 0 mm 2 mps 755 mmHg 94%
    08:00 -1°C° 0 mm 2 mps 756 mmHg 95%
    09:00 +1°C° 0 mm 2 mps 756 mmHg 95%
    10:00 +2°C° 0 mm 1 mps 756 mmHg 96%
    11:00 +3°C° 0 mm 1 mps 756 mmHg 97%
    12:00 +3°C° 0 mm 1 mps 756 mmHg 95%
    13:00 +3°C° 0 mm 1 mps 756 mmHg 94%
    14:00 +3°C° 0 mm 0 mps 756 mmHg 92%
    15:00 +2°C° 0 mm 0 mps 755 mmHg 92%
    16:00 +3°C° 0 mm 1 mps 755 mmHg 92%
    17:00 +2°C° 0 mm 1 mps 755 mmHg 93%
    18:00 +2°C° 0 mm 1 mps 755 mmHg 92%
    19:00 +2°C° 0 mm 1 mps 754 mmHg 91%
    20:00 +1°C° 0 mm 2 mps 754 mmHg 90%
    21:00 +1°C° 0 mm 2 mps 753 mmHg 90%
    22:00 -1°C° 0 mm 3 mps 753 mmHg 89%
    23:00 -1°C° 0 mm 3 mps 752 mmHg 88%

    24 March, Sunday

    Time Temperature Precipitation Wind Pressure Humidity
    00:00 -2°C° 0 mm 4 mps 752 mmHg 88%
    01:00 -2°C° 0 mm 4 mps 751 mmHg 87%
    02:00 -2°C° 0 mm 4 mps 750 mmHg 86%
    03:00 -2°C° 0.1 mm 4 mps 749 mmHg 87%
    04:00 -2°C° 0.1 mm 4 mps 749 mmHg 88%
    05:00 -2°C° 0.1 mm 4 mps 748 mmHg 89%
    06:00 -1°C° 0.3 mm 4 mps 748 mmHg 90%
    07:00 -1°C° 0.3 mm 4 mps 747 mmHg 91%
    08:00 -1°C° 0.3 mm 4 mps 747 mmHg 92%
    09:00 +1°C° 0 mm 3 mps 747 mmHg 89%
    10:00 +2°C° 0 mm 3 mps 746 mmHg 87%
    11:00 +2°C° 0 mm 3 mps 746 mmHg 84%
    12:00 +3°C° 0.2 mm 3 mps 746 mmHg 80%
    13:00 +3°C° 0.2 mm 4 mps 746 mmHg 76%
    14:00 +3°C° 0.2 mm 4 mps 746 mmHg 72%
    15:00 +2°C° 0.1 mm 3 mps 746 mmHg 75%
    16:00 +2°C° 0.1 mm 3 mps 746 mmHg 77%
    17:00 +1°C° 0.1 mm 3 mps 746 mmHg 79%
    18:00 0°C° 0 mm 3 mps 746 mmHg 81%
    19:00 -1°C° 0 mm 3 mps 746 mmHg 82%
    20:00 -1°C° 0 mm 3 mps 747 mmHg 84%
    21:00 -2°C° 0 mm 3 mps 747 mmHg 85%
    22:00 -2°C° 0 mm 3 mps 747 mmHg 86%
    23:00 -4°C° 0 mm 3 mps 747 mmHg 87%

    25 March, Monday

    Time Temperature Precipitation Wind Pressure Humidity
    00:00 -4°C° 0 mm 3 mps 746 mmHg 87%
    01:00 -5°C° 0 mm 3 mps 746 mmHg 88%
    02:00 -5°C° 0 mm 3 mps 746 mmHg 88%
    03:00 -5°C° 0 mm 3 mps 746 mmHg 88%
    04:00 -5°C° 0 mm 3 mps 746 mmHg 88%
    05:00 -5°C° 0 mm 3 mps 746 mmHg 88%
    06:00 -5°C° 0 mm 3 mps 747 mmHg 86%
    07:00 -4°C° 0 mm 3 mps 747 mmHg 83%
    08:00 -3°C° 0 mm 4 mps 747 mmHg 80%
    09:00 -3°C° 0 mm 4 mps 747 mmHg 76%
    10:00 -2°C° 0 mm 4 mps 747 mmHg 71%
    11:00 -1°C° 0 mm 4 mps 747 mmHg 67%
    12:00 0°C° 0 mm 3 mps 747 mmHg 65%
    13:00 0°C° 0 mm 3 mps 747 mmHg 63%
    14:00 +1°C° 0 mm 3 mps 746 mmHg 61%
    15:00 0°C° 0 mm 3 mps 746 mmHg 66%
    16:00 +1°C° 0 mm 2 mps 746 mmHg 70%
    17:00 -1°C° 0 mm 2 mps 746 mmHg 75%
    18:00 +1°C° 0.7 mm 1 mps 746 mmHg 83%
    19:00 0°C° 0.7 mm 1 mps 746 mmHg 90%
    20:00 0°C° 0.7 mm 1 mps 746 mmHg 97%
    21:00 0°C° 0.9 mm 1 mps 746 mmHg 97%
    22:00 0°C° 0.9 mm 1 mps 745 mmHg 97%
    23:00 0°C° 0.9 mm 1 mps 745 mmHg 97%

    26 March, Tuesday

    Time Temperature Precipitation Wind Pressure Humidity
    00:00 -1°C° 0.2 mm 1 mps 745 mmHg 97%
    01:00 -1°C° 0.2 mm 1 mps 745 mmHg 97%
    02:00 -1°C° 0.2 mm 1 mps 745 mmHg 96%
    03:00 -1°C° 0.1 mm 1 mps 746 mmHg 96%
    04:00 -3°C° 0.1 mm 2 mps 746 mmHg 95%
    05:00 -3°C° 0.1 mm 2 mps 746 mmHg 94%
    06:00 -3°C° 0.1 mm 2 mps 746 mmHg 92%
    07:00 -2°C° 0.1 mm 3 mps 747 mmHg 89%
    08:00 -2°C° 0.1 mm 3 mps 747 mmHg 86%
    09:00 -1°C° 0 mm 3 mps 747 mmHg 83%
    10:00 0°C° 0 mm 3 mps 748 mmHg 80%
    11:00 0°C° 0 mm 3 mps 748 mmHg 77%
    12:00 +1°C° 0 mm 3 mps 749 mmHg 75%
    13:00 +1°C° 0 mm 3 mps 749 mmHg 74%
    14:00 +1°C° 0 mm 3 mps 749 mmHg 72%
    15:00 +1°C° 0 mm 3 mps 750 mmHg 75%
    16:00 +1°C° 0 mm 2 mps 750 mmHg 77%
    17:00 +1°C° 0 mm 2 mps 750 mmHg 80%
    18:00 -1°C° 0 mm 2 mps 751 mmHg 82%
    19:00 -2°C° 0 mm 2 mps 752 mmHg 84%
    20:00 -3°C° 0 mm 2 mps 752 mmHg 87%
    21:00 -3°C° 0 mm 2 mps 752 mmHg 87%
    22:00 -4°C° 0 mm 2 mps 752 mmHg 87%
    23:00 -4°C° 0 mm 2 mps 753 mmHg 87%
    Show more